User: anonymous   Login
Location: Unspecified
(0.0000°N, 0.0000°E)
Time: 17:29:13
(UTC+00:00)
Language:

Symphonie 1 - Orbit

View from above orbital plane
View from above orbital plane
View from above satellite
View from above satellite

Ground track
Ground track

The orbit data is extracted from the following two-line orbital elements,

1  7578U 74101A   18018.46349324 +.00000118 +00000-0 +00000-0 0  9993
2  7578 011.6941 315.5806 0006380 320.3524 214.9577 00.99954223086490
Epoch (UTC): 18 January 2018 11:07:25
Eccentricity: 0.0006380
inclination: 11.6941°
perigee height: 35848 km
apogee height: 35902 km
right ascension of ascending node: 315.5806°
argument of perigee: 320.3524°
revolutions per day: 0.99954223
mean anomaly at epoch: 214.9577°
orbit number at epoch: 8649

The dashed part of the orbit path shows where the satellite is in the earth's shadow,  

DLR